Regional Weather Roundup
Issued by NWS

Home | Current Version | Previous Version | Graphics & Text | Print | Product List | Glossary On
Versions: 1 2 3 4 5 6 7 8 9 10 11 12 13 14 15 16 17 18 19 20 21 22 23 24 25 26 27 28 29 30 31 32 33 34 35 36 37 38 39 40 41 42 43 44 45 46 47 48 49 50
000
ASUS43 KMKX 251310
RWRWI

WISCONSIN REGIONAL WEATHER ROUNDUP
NATIONAL WEATHER SERVICE MILWAUKEE/SULLIVAN WI
700 AM CST SUN FEB 25 2018

NOTE: "FAIR" INDICATES FEW OR NO CLOUDS BELOW 12,000 FEET WITH NO
SIGNIFICANT WEATHER AND/OR OBSTRUCTIONS TO VISIBILITY.

WIZ001-002-006>008-014>016-023>028-251400-
NORTHWEST WISCONSIN

CITY           SKY/WX    TMP DP  RH WIND       PRES   REMARKS
SUPERIOR ARPT  CLOUDY    24  19  80 W18G29    29.42R WCI  10
ASHLAND        CLOUDY    25  20  81 SW21G26   29.38R WCI  11
HAYWARD        CLOUDY    23  19  85 SW14G21   29.45R WCI  11
SIREN          CLOUDY    21  18  86 W13       29.51S WCI   9
CUMBERLAND     CLOUDY    19  16  86 W14       29.52R FOG     WCI   6
RICE LAKE      CLOUDY    19  17  90 SW12G17   29.55R FOG     WCI   7
CHETEK         CLOUDY    18  16  89 W8        29.55R WCI   8
LADYSMITH      CLOUDY    21  18  88 SW15G22   29.51R WCI   8
EAU CLAIRE     CLOUDY    19  15  84 W16G25    29.59R WCI   4
MENOMONIE      CLOUDY    19  16  87 SW15      29.60R WCI   5
NEW RICHMOND   CLOUDY    19  15  86 SW13G22   29.59R WCI   5
OSCEOLA        CLOUDY    19  19 100 SW14      29.61R WCI   6
$$

WIZ003>005-009-010-017-018-251400-
NORTH CENTRAL WISCONSIN

CITY           SKY/WX    TMP DP  RH WIND       PRES   REMARKS
MANITOWISH WTR CLOUDY    24  22  92 W20G26    29.34R WCI  10
ARBOR VITAE    CLOUDY    26  22  86 W17G29    29.35R FOG     WCI  13
WOODRUFF       CLOUDY    26  22  86 W17G29    29.35R FOG     WCI  13
RHINELANDER    LGT SNOW  24  20  84 W21G33    29.39R FOG     WCI   9
EAGLE RIVER    MOCLDY    26  22  87 W25G33    29.33R FOG     WCI  10
LAND O LAKES   LGT SNOW  27  24  87 W10G22    29.31R WCI  17
PHILLIPS       CLOUDY    21  19  92 SW22G29   29.42R FOG     WCI   5
TOMAHAWK       LGT SNOW  21  18  86 SW13G21   29.44R WCI   9
MEDFORD        CLOUDY    18  15  88 W21G28    29.49R FOG     WCI   1
MERRILL        CLOUDY    21  18  86 W20G28    29.48R FOG     WCI   6
$$

WIZ029-030-035-036-043>047-251400-
CENTRAL WISCONSIN

CITY           SKY/WX    TMP DP  RH WIND       PRES   REMARKS
WAUSAU         CLOUDY    22  17  81 W20G29    29.50R WCI   7
MOSINEE        LGT SNOW  21  19  93 SW22G29   29.52R WCI   5
MARSHFIELD     CLOUDY    20  17  88 W21G29    29.54R FOG     WCI   4
STEVENS POINT  CLOUDY    21  18  90 SW12G18   29.56R WCI   9
WAUPACA        CLOUDY    27  20  75 SW20G31   29.57R WCI  14
WAUTOMA        CLOUDY    25  20  81 W16G24      N/A  WCI  12
WISC RAPIDS    CLOUDY    22  16  78 MISG      29.60R
CAMP DOUGLAS   CLOUDY    22  18  82 W17G25    29.65R WCI   8
$$

WIZ011>013-019>022-031-037>040-048>050-251400-
NORTHEAST WISCONSIN

CITY           SKY/WX    TMP DP  RH WIND       PRES   REMARKS
ANTIGO         CLOUDY    21  18  90 W28G36    29.44R FOG     WCI   3
SHAWANO        CLOUDY    28  22  78 W17G31    29.51R WCI  15
OCONTO         CLOUDY    28  22  79 W32G41    29.48R WCI  11
STURGEON BAY   CLOUDY    28  22  78 SW31G39   29.44R WCI  12
GREEN BAY      CLOUDY    28  20  71 W31G41    29.54R WCI  12
MANITOWOC      MOCLDY    28  21  75 W28G41    29.54R WCI  13
APPLETON       CLOUDY    27  18  69 W25G36    29.55R WCI  11
CLINTONVILLE   CLOUDY    26  19  75 W18G32    29.53R WCI  13
OSHKOSH        CLOUDY    27  19  72 W17G28    29.59R WCI  14
$$

WIZ032>034-041-042-053>061-251400-
SOUTHWEST WISCONSIN

CITY           SKY/WX    TMP DP  RH WIND       PRES   REMARKS
LA CROSSE      CLOUDY    23  18  81 SW8G18    29.71R WCI  14
SPARTA         CLOUDY    22  18  86 SW9G17    29.68R WCI  11
VIROQUA        CLOUDY    20  19  96 W16       29.68R WCI   6
BOSCOBEL       CLOUDY    23  16  74 SW12G25   29.77R WCI  12
PRAIRIE DU CHI CLOUDY    23  16  77 W9        29.78R WCI  13
PLATTEVILLE    CLOUDY    25  22  88 W17G28    29.77R WCI  12
$$

WIZ056-057-062-063-064-067-068-251400-
SOUTH CENTRAL WISCONSIN

CITY           SKY/WX    TMP DP  RH WIND       PRES   REMARKS
REEDSBURG      CLOUDY    22  17  78 W16G24    29.68R WCI   9
BARABOO/DELLS  CLOUDY    23  17  79 W15G22    29.67R WCI  10
LONE ROCK      MOCLDY    24  19  81 W20G32    29.74R WCI  10
MINERAL POINT  FAIR      25  23  93 W18G28    29.73R WCI  11
MADISON        FAIR      26  19  74 W9G22     29.69R WCI  17
MIDDLETON      MOCLDY    28  21  78 W16G25    29.69R WCI  15
WATERTOWN      FAIR      28  22  78 W21G28    29.66R WCI  15
MONROE         FAIR      28  23  80 W18G25    29.72R WCI  16
JANESVILLE       N/A     30  25  80 W20G28    29.72R WCI  18
$$

WIZ051-052-058>065-066-070>072-251400-
SOUTHEAST WISCONSIN

CITY           SKY/WX    TMP DP  RH WIND       PRES   REMARKS
MILWAUKEE      FAIR      32  23  69 W23G37    29.66R WCI  19
WAUKESHA       MOCLDY    28  21  74 W21G29    29.66R WCI  15
MILWAUKEE/TIMM MOCLDY    30  21  69 W22G35    29.65R WCI  17
RACINE         FAIR      32  24  72 SW21G33   29.69R WCI  20
BURLINGTON     FAIR      31  23  72 SW21G31   29.71R WCI  18
KENOSHA        FAIR      32  23  69 W23G37    29.70R WCI  19
FOND DU LAC    CLOUDY    28  19  69 W15G29    29.61R WCI  16
SHEBOYGAN      CLOUDY    29  22  75 W21G38    29.58R WCI  16
WEST BEND      CLOUDY    30  23  74 W21G32    29.61R WCI  17
JUNEAU         CLOUDY    27  21  78 SW26      29.65R WCI  12
$$

LSZ147-162-251400-
LAKE SUPERIOR

STATION/POSITION TIME  TEMP    WIND        PRES    WAVE
                       AIR SEA DIR/SP/G            HT/PER
                 (UTC) (F)     (DEG/KT/KT) (MB)    (FT/S)
DEVILS ISLAND    1200   30     250/ 28/ 35  991.4F
SAXON HARBOR     1240   27     240/ 10/ 16  993.9R
$$

LMZ867-665-643>646-251400-
LAKE MICHIGAN

STATION/POSITION TIME  TEMP    WIND        PRES    WAVE
                       AIR SEA DIR/SP/G            HT/PER
                 (UTC) (F)     (DEG/KT/KT) (MB)    (FT/S)
NORTHPORT PIER   1240   32                  994.9
KEWAUNEE LAKESHO 1242   29     260/ 22/ 38  998.0R
SHEBOYGAN LAKESH 1300   29     250/ 18/ 23 1002.5R
PORT WASHINGTON  1240   31     260/ 15/ 28 1004.1R
KENOSHA   LAKESH 1200   33     250/ 20/ 33 1006.1
$$

TC  - TEMPERATURE IN CELSIUS
VSB - VISIBILITY IN STATUTE MILES
WCI - WIND CHILL INDEX
HX  - HEAT INDEX





USA.gov is the U.S. government's official web portal to all federal, state and local government web resources and services.